This is the latest recevied weather packets stored in our database for station/object KE8URB. If no packets are shown the sender has not sent any weather packets the latest 10 day(s).
| Time | Temp. | Humidity | Pressure | Rain* | Wind** | Luminosity | Snow |
|---|---|---|---|---|---|---|---|
| 1787841103 | 22.22° C | 90% | 1015.7 hPa | 0 mm | - | 64 W/m² | - |
| 1787840798 | 22.22° C | 89% | 1015.6 hPa | 0 mm | - | 62 W/m² | - |
| 1787840493 | 22.22° C | 90% | 1015.6 hPa | 0 mm | - | 62 W/m² | - |
| 1787840189 | 21.67° C | 90% | 1015.4 hPa | 0 mm | - | 68 W/m² | - |
| 1787839888 | 21.67° C | 90% | 1015.4 hPa | 0 mm | - | 70 W/m² | - |
| 1787839584 | 21.67° C | 90% | 1015.4 hPa | 0 mm | - | 74 W/m² | - |
| 1787839284 | 21.67° C | 90% | 1015.4 hPa | 0 mm | - | 57 W/m² | - |
| 1787838978 | 21.67° C | 91% | 1015.4 hPa | 0 mm | - | 77 W/m² | - |
| 1787838677 | 21.11° C | 90% | 1015.3 hPa | 0 mm | - | 64 W/m² | - |
| 1787838376 | 21.11° C | 91% | 1015.2 hPa | 0 mm | - | 75 W/m² | - |
| 1787838075 | 21.11° C | 91% | 1015.2 hPa | 0 mm | - | 65 W/m² | - |
| 1787837775 | 21.11° C | 91% | 1015.3 hPa | 0 mm | - | 59 W/m² | - |
| 1787837470 | 20.56° C | 92% | 1015.3 hPa | 0 mm | - | 179 W/m² | - |
| 1787837165 | 20.56° C | 92% | 1015.4 hPa | 0 mm | - | 81 W/m² | - |
| 1787836864 | 20° C | 92% | 1015.5 hPa | 0 mm | - | 59 W/m² | - |
| 1787836560 | 20° C | 92% | 1015.2 hPa | 0 mm | - | 62 W/m² | - |
| 1787836259 | 20° C | 93% | 1015.3 hPa | 0 mm | - | 63 W/m² | - |
| 1787835955 | 20° C | 92% | 1015.3 hPa | 0 mm | - | 59 W/m² | - |
| 1787835650 | 20° C | 93% | 1015.2 hPa | 0 mm | - | 64 W/m² | - |
| 1787835349 | 20° C | 93% | 1015.2 hPa | 0 mm | - | 65 W/m² | - |
| 1787835045 | 20° C | 94% | 1015.2 hPa | 0 mm | - | 54 W/m² | - |
| 1787834744 | 19.44° C | 94% | 1015.2 hPa | 0 mm | - | 49 W/m² | - |
| 1787834439 | 19.44° C | 94% | 1015.3 hPa | 0 mm | - | 34 W/m² | - |
| 1787834135 | 19.44° C | 94% | 1015.1 hPa | 0 mm | - | 37 W/m² | - |
| 1787833830 | 19.44° C | 95% | 1015.3 hPa | 0 mm | - | 51 W/m² | - |
* Rain latest hour (hover to see other rain measurements)
** Current wind speed in m/s (hover to see current wind gust speed)